FALCON 9 DEB (46800 NORAD) Tracking and Keplerian Element Data

This shows tracking and keplerian element data for the satellite.

Feedback or suggestion? Click here.




ElementValue
Catalog46800
NameFALCON 9 DEB
Epoch Orbit505
Epoch Day327.10943687
Epoch Year2020
RAAN13.9585
Inclination53.0423
Eccentricity0.0002535
Argument of Perigee7.311
Mean Anonmoly352.7975
Mean Motion16.45306624
Decay Rate0.09846606
L11 46800U 20074BP 20327.10943687 .09846606 12551-4 28852-3 0 9998
L22 46800 53.0423 13.9585 0002535 7.3110 352.7975 16.45306624 5050



Live tracking and technical data element details for FALCON 9 DEB (NORAD 46800). FALCON 9 DEB can be tracked NOW for your location showing map with azimuth and elevation plus other details from your city location.







IsCatalogInMostPopularTable: catalog: 46800, numindb: 129
Update: records affected: 1



GetName: 46800 FALCON 9 DEB

Hit Count: updated at: Sun, 28 May 2023 07:19:34 GMT